[[{"header":{"parameterUnit":"m.s-1","parameterCategory":1,"la1":30.2991,"la2":30.254,"lo1":-89.0895,"lo2":-89.0444,"dy":0.0017,"dx":0.0017,"nx":28,"ny":28,"refTime":"2025-09-10T21:00:00:Z","depth":0,"parameterNumber":2,"parameterNumberName":"U-component_of_WINDS"},"data":[0,0,0,0,0,0,0,0,0,0,0,0,0,0,0,0,0,0,0,0,0,0,0,0,0,0,0,0,0,0,0,0,0,0,0,0,0,0,0,0,0,0,0,0,0,0,0,0,0,0,0,0,0,0,0,0,0,0,-0.9962,-0.9962,0,-0.9979,-0.9979,-0.9979,-0.9975,-0.9975,-0.9975,-0.9974,-0.999,-0.9991,-0.9991,0,0,0,0,0,0,0,0,0,0,0,0,0,-0.9926,-0.9927,-0.9962,-0.9962,-0.9962,-0.9979,-0.9979,-0.9979,-0.9975,-0.9975,-0.9975,-0.9974,-0.999,-0.999,-0.9991,0,0,0,0,0,0,0,0,0,0,0,0,0,-0.9942,-0.9927,-0.9962,-0.9963,-0.9963,-0.9979,-0.9979,-0.9979,-0.9975,-0.9975,-0.9975,-0.9974,-0.9989,-0.999,-0.9991,-1.0007,0,0,-0.9995,-0.9995,0,0,0,0,0,0,0,0,-0.9941,-0.9944,-0.9962,-0.9963,-0.9963,-0.9975,-0.9972,-0.9989,-0.9976,-0.9971,-0.9974,-0.9974,-0.9985,-0.9986,-0.999,-1.0008,-1.0009,-0.9995,-0.9995,-0.9996,-0.9996,0,0,0,0,0,0,0,-0.994,-0.9943,-0.9969,-0.9963,-0.9963,-0.9962,-0.9964,-0.9975,-0.998,-0.9971,-0.9971,-0.9973,-0.9985,-0.9989,-0.9991,-1.0009,-0.9995,-0.9996,-0.9996,-0.9997,-1.0041,-1.0042,0,0,0,0,0,0,-0.9939,-0.9942,-0.9968,-0.9969,-0.9951,-0.9963,-0.9965,-0.9971,-0.998,-0.9981,-0.9973,-0.9973,-0.9988,-0.999,-0.9991,-1.0011,-0.9996,-0.9997,-0.9997,-1.0041,-1.0042,-1.0042,0,0,0,0,0,0,-0.9938,-0.9941,-0.9967,-0.9955,-0.9959,-0.9964,-0.9971,-0.9972,-0.9976,-0.9982,-0.9983,-0.9977,-0.9988,-0.999,-1.0004,-1.0012,-0.9997,-0.9998,-1.004,-1.0041,-1.0042,-1.0051,0,0,0,0,0,0,-0.9937,-0.9941,-0.9947,-0.9956,-0.9959,-0.998,-0.9972,-0.9972,-0.9978,-0.9978,-0.9985,-0.9986,-0.9987,-1.0002,-1.0005,-1.0013,-0.9999,-1.0039,-1.0041,-1.0042,-1.005,-1.0052,-1.0053,0,0,0,0,0,-0.9936,-0.9948,-0.9947,-0.9951,-0.9967,-0.998,-0.9982,-0.9984,-0.9979,-0.9985,-0.9989,-0.9986,-1.0011,-1.0004,-1.0006,-1.0015,-1.0039,-1.004,-1.0041,-1.0049,-1.0051,-1.0053,0,0,0,0,0,0,-0.9939,-0.9949,-0.9949,-0.9964,-0.9971,-0.9979,-0.9987,-0.9986,-0.9994,-0.9993,-0.9995,-0.9996,-1.0011,-1.0014,-1.0006,-1.0031,-1.0024,-1.0026,-1.0029,-1.0031,-1.0033,-1.0032,-1.0,0,0,0,0,0,-0.9942,-0.9952,-0.996,-0.9973,-0.9977,-0.9982,-0.9987,-0.9988,-0.9995,-0.9998,-1.0003,-1.001,-1.0019,-1.0025,-1.0034,-1.005,-1.0052,-1.0058,-1.006,-1.0061,-1.0063,-1.0072,-1.0075,-1.0046,-1.0046,-1.0046,0,0,-0.9948,-0.9954,-0.996,-0.9974,-0.998,-0.999,-0.9984,-0.9995,-1.0003,-1.0,-1.0013,-1.0017,-1.0025,-1.0041,-1.0047,-1.0044,-1.0071,-1.0063,-1.0064,-1.0065,-1.0074,-1.0077,-1.0079,-1.0047,-1.0047,-1.0047,0,0,-0.9963,-0.9969,-0.9981,-0.9987,-0.9997,-1.0,-1.0003,-1.0011,-1.0014,-1.0028,-1.0027,-1.0036,-1.0051,-1.0058,-1.0063,-1.0082,-1.008,-1.0085,-1.0095,-1.0104,-1.0107,-1.0109,-1.0116,-1.0119,-1.0087,-1.0087,-1.0087,0,-0.9968,-0.9984,-0.9987,-0.9999,-1.0005,-1.0004,-1.0016,-1.0022,-1.0033,-1.0038,-1.0034,-1.0055,-1.006,-1.0077,-1.0082,-1.0086,-1.009,-1.0084,-1.0106,-1.0108,-1.011,-1.0117,-1.012,-1.0087,-1.0087,-1.0087,-1.0087,0,-0.9991,-1.0002,-1.001,-1.0023,-1.003,-1.0042,-1.0046,-1.0054,-1.0054,-1.0058,-1.0073,-1.0079,-1.009,-1.0094,-1.0094,-1.0112,-1.011,-1.0106,-1.0098,-1.0114,-1.012,-1.0123,-1.0088,-1.0088,-1.0088,-1.0088,0,0,-1.0007,-1.0022,-1.0025,-1.0032,-1.0043,-1.0051,-1.0064,-1.0075,-1.0081,-1.009,-1.01,-1.0114,-1.0112,-1.0118,-1.0119,-1.0127,-1.0143,-1.0123,-1.0123,-1.0127,-1.0164,-1.0167,-1.017,-1.0142,-1.0143,-1.0143,-1.0163,0,-1.0024,-1.0046,-1.0049,-1.0069,-1.008,-1.008,-1.0091,-1.0099,-1.0103,-1.0113,-1.0117,-1.0127,-1.0123,-1.0126,-1.0135,-1.0139,-1.0151,-1.0138,-1.0152,-1.0152,-1.015,-1.0173,-1.0176,-1.0195,-1.0166,-1.0167,-1.0167,0,-1.0045,-1.0056,-1.0077,-1.0088,-1.0093,-1.0102,-1.0114,-1.0123,-1.0132,-1.0135,-1.0143,-1.0143,-1.0156,-1.0148,-1.0166,-1.0158,-1.0164,-1.0167,-1.0168,-1.0169,-1.016,-1.0175,-1.0201,-1.0204,-1.0171,-1.0171,-1.017,0,-1.0056,-1.0075,-1.0091,-1.0096,-1.0109,-1.0116,-1.0122,-1.0131,-1.0138,-1.0148,-1.0153,-1.0164,-1.017,-1.0178,-1.0182,-1.0176,-1.02,-1.0193,-1.0203,-1.0203,-1.0207,-1.0207,-1.0234,-1.0211,-1.0211,-1.0211,-1.0211,0,-1.0074,-1.0087,-1.0096,-1.0105,-1.012,-1.0124,-1.0139,-1.0144,-1.0152,-1.0163,-1.0163,-1.0173,-1.0177,-1.0188,-1.0191,-1.0206,-1.0208,-1.0211,-1.0212,-1.0211,-1.0211,-1.0215,-1.0214,-1.0212,-1.0212,-1.0211,-1.0211,0,-1.0088,-1.0094,-1.0111,-1.0123,-1.0127,-1.0137,-1.0147,-1.0156,-1.0161,-1.0174,-1.0178,-1.0185,-1.0198,-1.0203,-1.0217,-1.0219,-1.0237,-1.0236,-1.0234,-1.0234,-1.0244,-1.0243,-1.0275,-1.028,-1.0253,-1.0254,-1.0254,0,-1.0099,-1.0109,-1.0123,-1.0131,-1.0137,-1.0149,-1.0157,-1.0162,-1.017,-1.0182,-1.019,-1.0203,-1.0214,-1.0234,-1.024,-1.0252,-1.0252,-1.0262,-1.0253,-1.0253,-1.0253,-1.0252,-1.0253,-1.0264,-1.0264,-1.0264,-1.0264,0,-1.0118,-1.0121,-1.0133,-1.0146,-1.0156,-1.0166,-1.0176,-1.0183,-1.0189,-1.0198,-1.0212,-1.022,-1.0237,-1.0249,-1.0262,-1.0267,-1.0267,-1.0267,-1.027,-1.027,-1.0268,-1.027,-1.0239,-1.0266,-1.0266,-1.0266,-1.0266,-1.0266,-1.0131,-1.0141,-1.0152,-1.0166,-1.0174,-1.0184,-1.0194,-1.0201,-1.0213,-1.0227,-1.0229,-1.0244,-1.0254,-1.0271,-1.0278,-1.0289,-1.0286,-1.029,-1.0292,-1.0293,-1.0294,-1.0267,-1.0291,-1.0291,-1.0291,-1.0291,-1.0291,0,-1.0151,-1.0159,-1.0171,-1.0186,-1.0197,-1.0197,-1.0209,-1.0217,-1.0231,-1.0241,-1.0252,-1.0268,-1.0281,-1.0289,-1.0302,-1.031,-1.031,-1.0313,-1.0313,-1.0314,-1.0295,-1.0291,-1.0313,-1.0313,-1.0313,-1.0313,-1.0313,-1.0313,-1.0162,-1.0179,-1.0184,-1.0205,-1.0213,-1.0228,-1.0235,-1.0244,-1.0252,-1.0271,-1.0282,-1.0288,-1.0297,-1.0312,-1.0324,-1.0326,-1.0331,-1.0334,-1.0336,-1.0318,-1.0316,-1.0313,-1.031,-1.0335,-1.0335,-1.0354,-1.0355,-1.0355]},{"header":{"parameterUnit":"m.s-1","parameterCategory":1,"la1":30.2991,"la2":30.254,"lo1":-89.0895,"lo2":-89.0444,"dy":0.0017,"dx":0.0017,"nx":28,"ny":28,"refTime":"2025-09-10T21:00:00:Z","depth":0,"parameterNumber":3,"parameterNumberName":"V-component_of_WINDS"},"data":[0,0,0,0,0,0,0,0,0,0,0,0,0,0,0,0,0,0,0,0,0,0,0,0,0,0,0,0,0,0,0,0,0,0,0,0,0,0,0,0,0,0,0,0,0,0,0,0,0,0,0,0,0,0,0,0,0,0,-0.9556,-0.9556,0,-0.9479,-0.9478,-0.9477,-0.9402,-0.9401,-0.94,-0.9399,-0.9319,-0.9318,-0.9317,0,0,0,0,0,0,0,0,0,0,0,0,0,-0.9639,-0.9638,-0.9557,-0.9556,-0.9555,-0.9479,-0.9478,-0.9477,-0.9402,-0.9401,-0.94,-0.9399,-0.932,-0.9318,-0.9317,0,0,0,0,0,0,0,0,0,0,0,0,0,-0.9586,-0.9637,-0.9557,-0.9508,-0.9503,-0.9479,-0.9478,-0.9477,-0.9403,-0.9401,-0.94,-0.9398,-0.932,-0.9318,-0.9317,-0.9334,0,0,-0.9311,-0.931,0,0,0,0,0,0,0,0,-0.9589,-0.9583,-0.9516,-0.9512,-0.9506,-0.9449,-0.9477,-0.9429,-0.9403,-0.9441,-0.9399,-0.9398,-0.9363,-0.9358,-0.9347,-0.933,-0.9327,-0.9311,-0.931,-0.9309,-0.9308,0,0,0,0,0,0,0,-0.9593,-0.9586,-0.9526,-0.9515,-0.9509,-0.949,-0.9481,-0.9468,-0.9411,-0.9437,-0.9432,-0.9424,-0.936,-0.9349,-0.9344,-0.9326,-0.9311,-0.9309,-0.9308,-0.9307,-0.9318,-0.932,0,0,0,0,0,0,-0.9604,-0.959,-0.9528,-0.9523,-0.9545,-0.949,-0.948,-0.9469,-0.9411,-0.9401,-0.9425,-0.942,-0.9352,-0.9346,-0.9341,-0.9357,-0.9309,-0.9307,-0.9306,-0.9317,-0.9319,-0.932,0,0,0,0,0,0,-0.9606,-0.96,-0.9531,-0.9555,-0.9545,-0.949,-0.9478,-0.9468,-0.9456,-0.9402,-0.9391,-0.9424,-0.9351,-0.9344,-0.9336,-0.9353,-0.9306,-0.9305,-0.9315,-0.9317,-0.9319,-0.939,0,0,0,0,0,0,-0.9609,-0.9601,-0.9607,-0.9556,-0.9544,-0.9528,-0.9479,-0.9467,-0.9453,-0.9446,-0.9397,-0.9388,-0.9349,-0.9339,-0.9334,-0.935,-0.9303,-0.9313,-0.9316,-0.9319,-0.9386,-0.9395,-0.9402,0,0,0,0,0,-0.9612,-0.963,-0.9608,-0.9601,-0.9551,-0.953,-0.9523,-0.9478,-0.9455,-0.946,-0.9425,-0.939,-0.9352,-0.9339,-0.9333,-0.9348,-0.9312,-0.9315,-0.9319,-0.9383,-0.9393,-0.9402,0,0,0,0,0,0,-0.9685,-0.9623,-0.9597,-0.9599,-0.957,-0.9517,-0.9523,-0.949,-0.9467,-0.9462,-0.9407,-0.9397,-0.9396,-0.9371,-0.9357,-0.9362,-0.9327,-0.9329,-0.9378,-0.9387,-0.9395,-0.9401,-0.9302,0,0,0,0,0,-0.9702,-0.969,-0.9636,-0.9643,-0.9629,-0.9579,-0.9568,-0.9536,-0.9504,-0.9491,-0.9455,-0.9425,-0.9406,-0.9395,-0.9375,-0.9382,-0.937,-0.9389,-0.9397,-0.9404,-0.9406,-0.9408,-0.9415,-0.9331,-0.9331,-0.9331,0,0,-0.9735,-0.97,-0.9696,-0.9656,-0.963,-0.9619,-0.9569,-0.9559,-0.955,-0.9489,-0.948,-0.9453,-0.9415,-0.9415,-0.9413,-0.9394,-0.9427,-0.9408,-0.9413,-0.9412,-0.9412,-0.942,-0.9427,-0.9333,-0.9332,-0.9332,0,0,-0.9791,-0.9763,-0.9766,-0.974,-0.9701,-0.9667,-0.9668,-0.9619,-0.9599,-0.9589,-0.9542,-0.953,-0.9499,-0.9474,-0.9458,-0.9503,-0.9469,-0.9498,-0.9539,-0.9541,-0.9547,-0.9553,-0.9569,-0.9575,-0.95,-0.95,-0.9501,0,-0.9838,-0.9819,-0.9771,-0.9764,-0.9748,-0.9692,-0.9694,-0.9671,-0.9628,-0.9618,-0.9597,-0.9557,-0.9527,-0.952,-0.9531,-0.9519,-0.9518,-0.9503,-0.955,-0.9555,-0.956,-0.9575,-0.9581,-0.9504,-0.9504,-0.9503,-0.9503,0,-0.9879,-0.9867,-0.9873,-0.9833,-0.9817,-0.9815,-0.9765,-0.9755,-0.9724,-0.9692,-0.9682,-0.9645,-0.9616,-0.9612,-0.9581,-0.96,-0.9589,-0.956,-0.9525,-0.9573,-0.9586,-0.9591,-0.951,-0.9508,-0.9507,-0.9506,0,0,-0.998,-0.9912,-0.9915,-0.9896,-0.9848,-0.9837,-0.9831,-0.9803,-0.9796,-0.9767,-0.9761,-0.9735,-0.9708,-0.9689,-0.9655,-0.9656,-0.9694,-0.9627,-0.9625,-0.9641,-0.9712,-0.9735,-0.9742,-0.9671,-0.9672,-0.9672,-0.9715,0,-1.0028,-1.0015,-0.9971,-0.9972,-0.9959,-0.9905,-0.99,-0.987,-0.984,-0.9824,-0.979,-0.9773,-0.9738,-0.9727,-0.9726,-0.969,-0.9708,-0.9686,-0.9664,-0.9664,-0.9677,-0.9749,-0.9773,-0.9815,-0.972,-0.9721,-0.9721,0,-1.0083,-1.0058,-1.0057,-1.0009,-1.0002,-0.9999,-0.9969,-0.9955,-0.9919,-0.9897,-0.9875,-0.9837,-0.9828,-0.9794,-0.978,-0.9766,-0.9754,-0.9735,-0.9736,-0.9733,-0.9697,-0.9748,-0.9828,-0.9834,-0.9729,-0.9728,-0.9728,0,-1.0157,-1.0123,-1.0118,-1.0103,-1.0047,-1.0045,-1.0022,-0.9984,-0.997,-0.9943,-0.9933,-0.9906,-0.9891,-0.9871,-0.9826,-0.9806,-0.9817,-0.978,-0.9798,-0.9799,-0.9804,-0.9804,-0.9883,-0.9795,-0.9795,-0.9795,-0.9795,0,-1.0216,-1.0218,-1.0151,-1.0148,-1.0148,-1.0096,-1.0098,-1.0069,-1.0036,-1.0026,-0.9977,-0.9968,-0.991,-0.9894,-0.9859,-0.9852,-0.9846,-0.9827,-0.9818,-0.9832,-0.9835,-0.9824,-0.9821,-0.9797,-0.9796,-0.9796,-0.9796,0,-1.0299,-1.0254,-1.0246,-1.0193,-1.0179,-1.0182,-1.0136,-1.0131,-1.0097,-1.0085,-1.0079,-1.0026,-1.0005,-0.9958,-0.9925,-0.9901,-0.9903,-0.9886,-0.9916,-0.991,-0.9931,-0.993,-1.0007,-1.0014,-0.9922,-0.9923,-0.9924,0,-1.034,-1.0341,-1.0287,-1.0277,-1.0256,-1.024,-1.0225,-1.0173,-1.016,-1.0118,-1.0118,-1.0093,-1.0071,-1.004,-0.9998,-0.9972,-0.9954,-0.9983,-0.995,-0.9964,-0.9955,-0.9956,-0.9956,-0.9991,-0.9992,-0.9993,-0.9994,0,-1.0418,-1.0395,-1.0376,-1.0348,-1.0332,-1.0307,-1.028,-1.0275,-1.0216,-1.0203,-1.0181,-1.0164,-1.013,-1.0106,-1.0073,-1.0048,-1.0011,-1.0004,-1.0007,-1.0022,-1.0039,-1.003,-0.9936,-1.0003,-1.0002,-1.0001,-1.0001,-1.0,-1.0482,-1.0479,-1.0441,-1.0421,-1.0395,-1.037,-1.0363,-1.0328,-1.0309,-1.0277,-1.0247,-1.0228,-1.0191,-1.0144,-1.0121,-1.0104,-1.0086,-1.009,-1.0091,-1.0094,-1.01,-1.0041,-1.0098,-1.0098,-1.0098,-1.0097,-1.0097,0,-1.0557,-1.053,-1.0511,-1.0475,-1.0459,-1.0425,-1.0393,-1.0382,-1.0366,-1.0334,-1.0313,-1.0287,-1.0264,-1.0219,-1.0191,-1.0187,-1.017,-1.0182,-1.0182,-1.0176,-1.0118,-1.0118,-1.0196,-1.0196,-1.0196,-1.0196,-1.0196,-1.0196,-1.0595,-1.0588,-1.0561,-1.0541,-1.0513,-1.0495,-1.0479,-1.0456,-1.0431,-1.0405,-1.0385,-1.0356,-1.0319,-1.0288,-1.0264,-1.0252,-1.0244,-1.0261,-1.0244,-1.019,-1.0181,-1.0172,-1.0172,-1.026,-1.026,-1.0304,-1.0304,-1.0305]}]]